The Dalles, WA

3:38 PM PDT on August 20, 2019 (GMT -0700)
Columbia Gorge Regional-The Dalles

Weather History for KDLS - June, 2019

Change the Weather History Date:

Thursday, June 6, 2019

  Actual Average Record
Temperature  
Mean Temperature 60 °F -  
Max Temperature 68 °F 78 °F 98 °F (2003)
Min Temperature 51 °F 55 °F 41 °F (2005)
Degree Days  
Heating Degree Days 6    
Growing Degree Days 10 (Base 50)    
Moisture  
Dew Point 40 °F    
Average Humidity 51    
Maximum Humidity 71    
Minimum Humidity 30    
Precipitation  
Precipitation 0.00 in - - ()
Sea Level Pressure  
Sea Level Pressure 29.96 in    
Wind  
Wind Speed 15 mph (WNW)    
Max Wind Speed 24 mph    
Max Gust Speed 32 mph    
Visibility 10 miles    
Events      
Averages and records for this station are not official NWS values.
T = Trace of Precipitation, MM = Missing Value Source: NWS Daily Summary

Daily Weather History Graph

Daily Weather History Graph

Search for Another Location

Airport or City:

Astronomy

Jun. 06, 2019 Rise Set
Actual Time 5:16 AM PDT 8:50 PM PDT
Civil Twilight 4:39 AM PDT 9:28 PM PDT
Nautical Twilight 3:49 AM PDT 10:17 PM PDT
Astronomical Twilight 2:44 AM PDT 11:23 PM PDT
Moon 8:32 AM PDT (6/6) No Moon Set
Length of Visible Light 16h 48m
Length of Day
15h 33m
Waxing Crescent, 14% of the Moon is Illuminated
Jun 6
Waxing Crescent
Jun 9
First Quarter
Jun 17
Full
Jun 25
Last Quarter
Jul 2
New

Hourly Weather History & Observations

Time (PDT) Temp. Dew Point Humidity Pressure Visibility Wind Dir Wind Speed Gust Speed Precip Events Conditions
12:53 AM 61.0 °F 48.0 °F 62% 29.93 in 10.0 mi NW 11.5 mph - N/A   Partly Cloudy
1:53 AM 59.0 °F 46.0 °F 62% 29.94 in 10.0 mi WNW 16.1 mph - N/A   Clear
2:53 AM 59.0 °F 44.1 °F 58% 29.93 in 10.0 mi WNW 16.1 mph - N/A   Clear
3:53 AM 57.9 °F 43.0 °F 58% 29.94 in 10.0 mi WNW 12.7 mph 24.2 mph N/A   Overcast
4:53 AM 57.0 °F 43.0 °F 59% 29.94 in 10.0 mi WNW 11.5 mph - N/A   Overcast
5:53 AM 55.0 °F 41.0 °F 59% 29.94 in 10.0 mi WNW 15.0 mph - N/A   Clear
6:53 AM 55.9 °F 41.0 °F 57% 29.95 in 10.0 mi NW 15.0 mph - N/A   Clear
8:53 AM 57.0 °F 39.9 °F 53% 29.95 in 10.0 mi NW 18.4 mph 25.3 mph N/A   Clear
9:53 AM 59.0 °F 39.0 °F 48% 29.96 in 10.0 mi WNW 17.3 mph 23.0 mph N/A   Clear
10:53 AM 59.0 °F 36.0 °F 42% 29.95 in 10.0 mi WNW 23.0 mph 28.8 mph N/A   Clear
11:53 AM 62.1 °F 36.0 °F 38% 29.95 in 10.0 mi WNW 21.9 mph 29.9 mph N/A   Clear
12:53 PM 64.0 °F 37.9 °F 38% 29.94 in 10.0 mi West 17.3 mph 25.3 mph N/A   Clear
1:53 PM 64.9 °F 37.9 °F 37% 29.93 in 10.0 mi NNW 15.0 mph 23.0 mph N/A   Clear
2:53 PM 63.0 °F 37.0 °F 38% 29.94 in 10.0 mi NW 24.2 mph 32.2 mph N/A   Partly Cloudy
3:53 PM 66.9 °F 34.0 °F 30% 29.93 in 10.0 mi West 19.6 mph 26.5 mph N/A   Clear
4:53 PM 68.0 °F 36.0 °F 31% 29.93 in 10.0 mi WNW 17.3 mph 26.5 mph N/A   Scattered Clouds
5:53 PM 62.1 °F 41.0 °F 46% 29.96 in 10.0 mi WNW 20.7 mph 31.1 mph N/A   Mostly Cloudy
6:53 PM 61.0 °F 39.0 °F 44% 29.98 in 10.0 mi WNW 16.1 mph 21.9 mph N/A   Overcast
7:53 PM 59.0 °F 39.0 °F 48% 29.99 in 10.0 mi WNW 17.3 mph - N/A   Mostly Cloudy
8:53 PM 54.0 °F 39.9 °F 59% 29.99 in 10.0 mi WNW 8.1 mph - N/A   Clear
9:53 PM 52.0 °F 42.1 °F 69% 30.01 in 10.0 mi NW 5.8 mph - N/A   Partly Cloudy
10:53 PM 51.1 °F 42.1 °F 71% 30.02 in 10.0 mi NW 8.1 mph - N/A   Scattered Clouds
11:53 PM 51.1 °F 42.1 °F 71% 30.02 in 10.0 mi WNW 12.7 mph - N/A   Clear